This demonstration page uses our WeatherBlox Daily Observations layout. Learn more.

Left ArrowRight Arrow

Hourly Observations for July 2, 2022

Temp ( °F °C ) Dew Point ( °F °C ) Humidity (%) Winds ( mph kmh ) Pressure ( in mb ) Visibility ( mi km ) Precip ( " mm )
12:52 am 00:52 Clear 65 18.3 62 16.7 90 90 Calm 30.02 1017 10 16 0.00 0.00
1:52 am 01:52 Clear 62 16.7 62 16.7 100 100 Calm 30.02 1017 10 16 0.00 0.00
2:52 am 02:52 Clear 60 15.6 60 15.6 100 100 WNW 3 6 30.01 1016 10 16 0.00 0.00
3:52 am 03:52 Clear 60 15.6 59 15 96 96 Calm 29.99 1016 10 16 0.00 0.00
4:52 am 04:52 Mostly Cloudy 63 17.2 60 15.6 90 90 SSE 7 11 29.98 1015 10 16 0.00 0.00
5:52 am 05:52 Mostly Cloudy 64 17.8 60 15.6 87 87 SSE 7 11 29.99 1016 10 16 0.00 0.00
6:52 am 06:52 Mostly Cloudy 66 18.9 60 15.6 81 81 Calm 30.01 1016 10 16 0.00 0.00
7:52 am 07:52 Cloudy 67 19.4 62 16.7 84 84 N 5 7 30.03 1017 10 16 0.00 0.00
8:52 am 08:52 Mostly Cloudy 70 21.1 59 15 68 68 SSE 7 11 30.04 1017 10 16 0.00 0.00
9:52 am 09:52 Mostly Cloudy 71 21.7 59 15 66 66 SSE 9 15 30.03 1017 10 16 0.00 0.00
10:52 am 10:52 Cloudy 70 21.1 60 15.6 71 71 S 16 26 30.02 1017 10 16 0.00 0.00
11:52 am 11:52 Mostly Cloudy 69 20.6 60 15.6 73 73 SE 8 13 30.03 1017 10 16 0.00 0.00
12:52 pm 12:52 Mostly Cloudy 76 24.4 63 17.2 64 64 S 10 17 30.02 1017 10 16 0.00 0.00
1:52 pm 13:52 Partly Cloudy 80 26.7 64 17.8 58 58 S 12 19 30.00 1016 10 16 0.00 0.00
2:52 pm 14:52 Partly Cloudy 80 26.7 64 17.8 58 58 SSE 8 13 29.99 1016 10 16 0.00 0.00
3:52 pm 15:52 Mostly Cloudy 81 27.2 64 17.8 57 57 SE 6 9 29.99 1016 10 16 0.00 0.00
4:52 pm 16:52 Partly Cloudy 82 27.8 64 17.8 55 55 SSE 5 7 29.98 1015 10 16 0.00 0.00
5:52 pm 17:52 Partly Cloudy 83 28.3 64 17.8 53 53 ESE 9 15 29.97 1015 10 16 0.00 0.00
6:52 pm 18:52 Partly Cloudy 83 28.3 65 18.3 55 55 E 7 11 29.96 1015 10 16 0.00 0.00
7:52 pm 19:52 Partly Cloudy 81 27.2 66 18.9 61 61 E 8 13 29.96 1015 10 16 0.00 0.00
8:52 pm 20:52 Partly Cloudy 80 26.7 65 18.3 60 60 ESE 8 13 29.96 1015 10 16 0.00 0.00
9:52 pm 21:52 Mostly Clear 77 25 65 18.3 66 66 ESE 9 15 29.98 1015 10 16 0.00 0.00
10:52 pm 22:52 Clear 75 23.9 65 18.3 71 71 SE 12 19 29.99 1016 10 16 0.00 0.00
11:52 pm 23:52 Clear 73 22.8 64 17.8 74 74 E 3 6 30.02 1017 10 16 0.00 0.00

Powered by AerisWeather